Location: Splawn
(30.9202°N, 96.9858°W)
Time: 11:11:18
(UTC+00:00)

Transit 2A Rocket - Pass Details

Date: 07 March 2020
Orbit: 588 x 915 km, 66.7° (Epoch: 07 April)

Event Time Altitude Azimuth Distance (km) Brightness Sun altitude
Rises 01:25:53 0° 221° (SW) 2,803 8.5 -12.7°
Reaches altitude 10° 01:28:11 10° 229° (SW) 1,907 7.8 -13.2°
Maximum altitude 01:32:11 39° 299° (WNW) 897 5.9 -14.0°
Drops below altitude 10° 01:36:20 10° 9° (N) 1,984 7.1 -14.9°
Sets 01:38:47 0° 17° (NNE) 2,933 7.9 -15.5°
